Flint, MI

10:16 PM EDT on April 24, 2017 (GMT -0400)
Bishop International

Weather History for KFNT - September, 2012

Change the Weather History Date:

Tuesday, September 25, 2012

  Actual Average Record
Temperature  
Mean Temperature 61 °F 57 °F  
Max Temperature 71 °F 69 °F 86 °F (1935)
Min Temperature 50 °F 46 °F 30 °F (1947)
Degree Days  
Heating Degree Days 4 8  
Month to date heating degree days 119 117  
Since 1 July heating degree days 130 161  
Cooling Degree Days 0 1  
Month to date cooling degree days 65 44  
Year to date cooling degree days 853 521  
Growing Degree Days 11 (Base 50)    
Moisture  
Dew Point 44 °F    
Average Humidity 62    
Maximum Humidity 80    
Minimum Humidity 43    
Precipitation  
Precipitation 0.00 in 0.12 in 2.62 in (1933)
Month to date precipitation 2.58 3.17  
Year to date precipitation 24.30 23.73  
Snow  
Snow 0.00 in 0.00 in 0.00 in ()
Month to date snowfall 0.0 0.0  
Since 1 July snowfall 0.0 0.0  
Since 1 September snowfall 0.0 0.0  
Snow Depth 0.00 in    
Sea Level Pressure  
Sea Level Pressure 29.89 in    
Wind  
Wind Speed 9 mph (SSW)    
Max Wind Speed 16 mph    
Max Gust Speed 21 mph    
Visibility 10 miles    
Events      
T = Trace of Precipitation, MM = Missing Value Source: NWS Daily Summary

Daily Weather History Graph

Daily Weather History Graph

Search for Another Location

Airport or City:

Trip Planner

Search our weather history database for the weather conditions in past years. The results will help you decide how hot, cold, wet, or windy it might be!

Date:

Astronomy

Sep. 25, 2012 Rise Set
Actual Time 7:26 AM EDT 7:26 PM EDT
Civil Twilight 6:57 AM EDT 7:54 PM EDT
Nautical Twilight 6:24 AM EDT 8:27 PM EDT
Astronomical Twilight 5:51 AM EDT 9:00 PM EDT
Moon 4:55 PM EDT 2:40 AM EDT
Length of Visible Light 12h 56m
Length of Day
11h 59m
Waxing Gibbous, 80% of the Moon is Illuminated
Sep 25
Waxing Gibbous
Sep 29
Full
Oct 8
Last Quarter
Oct 15
New
Oct 21
First Quarter

Hourly Weather History & Observations

Time (EDT) Temp. Dew Point Humidity Pressure Visibility Wind Dir Wind Speed Gust Speed Precip Events Conditions
12:53 AM 55.0 °F 34.0 °F 45% 29.91 in 10.0 mi SW 10.4 mph - N/A   Clear
1:53 AM 55.0 °F 35.1 °F 47% 29.91 in 10.0 mi SW 10.4 mph - N/A   Clear
2:53 AM 54.0 °F 36.0 °F 51% 29.90 in 10.0 mi SSW 6.9 mph - N/A   Clear
3:53 AM 55.0 °F 36.0 °F 49% 29.90 in 10.0 mi SW 8.1 mph - N/A   Clear
4:53 AM 54.0 °F 37.0 °F 53% 29.90 in 10.0 mi SW 9.2 mph - N/A   Clear
5:53 AM 53.1 °F 37.0 °F 55% 29.90 in 10.0 mi SW 9.2 mph - N/A   Clear
6:53 AM 52.0 °F 37.9 °F 59% 29.91 in 10.0 mi SSW 5.8 mph - N/A   Clear
7:53 AM 51.1 °F 39.0 °F 63% 29.90 in 10.0 mi SSW 8.1 mph - N/A   Clear
8:53 AM 55.0 °F 39.9 °F 57% 29.91 in 10.0 mi SSW 11.5 mph - N/A   Clear
9:53 AM 57.0 °F 41.0 °F 55% 29.94 in 10.0 mi SSW 10.4 mph - N/A   Mostly Cloudy
10:53 AM 61.0 °F 44.1 °F 54% 29.91 in 10.0 mi SSW 10.4 mph - N/A   Clear
11:53 AM 64.9 °F 46.9 °F 52% 29.91 in 10.0 mi SSW 11.5 mph - N/A   Overcast
12:53 PM 69.1 °F 48.9 °F 49% 29.89 in 10.0 mi SSW 8.1 mph - N/A   Mostly Cloudy
1:53 PM 70.0 °F 48.0 °F 46% 29.87 in 10.0 mi SSW 12.7 mph - N/A   Scattered Clouds
2:53 PM 69.8 °F 48.2 °F 46% 29.85 in 10.0 mi South 11.5 mph - N/A   Scattered Clouds
3:53 PM 66.9 °F 48.0 °F 51% 29.86 in 10.0 mi SSW 10.4 mph - N/A   Overcast
4:53 PM 68.0 °F 50.0 °F 52% 29.85 in 10.0 mi South 11.5 mph 18.4 mph N/A   Overcast
5:53 PM 68.0 °F 50.0 °F 52% 29.85 in 10.0 mi SW 11.5 mph 19.6 mph N/A   Partly Cloudy
6:53 PM 64.4 °F 48.2 °F 56% 29.86 in 10.0 mi SSW 10.4 mph - N/A   Clear
7:53 PM 62.1 °F 50.0 °F 65% 29.87 in 10.0 mi SSW 5.8 mph - N/A   Clear
8:53 PM 59.0 °F 50.0 °F 72% 29.88 in 10.0 mi SSW 5.8 mph - N/A   Clear
9:53 PM 57.9 °F 50.0 °F 75% 29.89 in 10.0 mi South 3.5 mph - N/A   Clear
10:53 PM 57.0 °F 50.0 °F 77% 29.89 in 10.0 mi South 4.6 mph - N/A   Clear
11:53 PM 57.0 °F 51.1 °F 81% 29.89 in 10.0 mi SSW 5.8 mph - N/A   Clear